EW1210 Weather Reports


time (UTC)temp
F
wind
direction
speed
knots
gust
knots
rain 1hr
in
rain 24hr
in
rain mn
in
humidity
%
barometer
mb
20260502191526 54 135 2.6 6.1 0.00 0.00 0.00 82 1012.0
20260502190032 55 232 0.9 3.5 0.00 0.00 0.00 81 1012.1
20260502184537 55 200 0.9 4.3 0.00 0.00 0.00 82 1012.3
20260502183035 54 222 1.7 4.3 0.00 0.00 0.00 81 1012.3
20260502181532 54 207 2.6 4.3 0.00 0.00 0.00 82 1012.4
20260502163016 51 170 0.0 1.7 0.00 0.00 0.00 87 1012.9
20260502161508 51 207 0.9 2.6 0.00 0.00 0.00 87 1013.0
20260502151505 51 214 0.0 1.7 0.00 0.00 0.00 87 1013.5
20260502123058 50 169 0.0 1.7 0.00 0.00 0.00 88 1013.5
20260502121555 49 4 0.0 0.0 0.00 0.00 0.00 88 1013.3
20260502114605 48 205 0.0 0.0 0.00 0.00 0.00 88 1013.9
20260502113051 47 205 0.0 0.0 0.00 0.00 0.00 88 1013.4
20260502111554 47 205 0.0 0.0 0.00 0.00 0.00 88 1013.5
20260502110049 46 205 0.0 0.0 0.00 0.00 0.00 88 1013.6
20260502104551 46 205 0.0 0.0 0.00 0.00 0.00 88 1013.3
20260502103044 0 0.0 0.0 0.00 0.00 0.00 1013.1
20260502101608 0 0.0 0.0 0.00 0.00 0.00 1013.2
20260502091523 46 206 0.0 0.0 0.00 0.00 0.00 87 1013.0
20260502071513 47 204 0.0 0.0 0.00 0.00 0.00 86 1013.0
20260502070017 47 272 0.0 0.0 0.00 0.00 0.00 86 1013.2
20260502064514 47 212 0.0 0.0 0.00 0.00 0.00 86 1013.1
20260502063012 47 199 0.0 0.0 0.00 0.00 0.00 85 1013.1
20260502061510 47 207 0.0 0.0 0.00 0.00 0.00 86 1013.1
20260502060012 47 207 0.0 0.0 0.00 0.00 0.00 84 1013.3
20260502054507 48 207 0.0 0.0 0.00 0.00 0.00 84 1013.4
20260502053005 48 228 0.0 0.0 0.00 0.00 0.00 83 1013.4
20260502051502 48 224 0.0 0.0 0.00 0.00 0.00 82 1013.6
20260502050007 48 222 0.0 0.0 0.00 0.00 0.00 82 1014.0
20260502044600 48 263 0.0 3.5 0.00 0.00 0.00 81 1013.9
20260502043105 48 158 0.9 4.3 0.00 0.00 0.00 82 1013.7
20260502041557 48 150 0.0 1.7 0.00 0.00 0.00 83 1013.8
20260502040059 49 222 0.9 3.5 0.00 0.00 0.00 83 1013.7
20260502034553 49 160 0.0 2.6 0.00 0.00 0.00 83 1013.7
20260502033057 49 224 0.9 1.7 0.00 0.00 0.00 82 1013.9
20260502031552 49 222 0.0 0.9 0.00 0.00 0.00 82 1013.9
20260502030058 49 212 0.0 1.7 0.00 0.00 0.00 82 1013.9
20260502024551 49 239 0.0 0.9 0.00 0.00 0.00 81 1013.7
20260502023112 49 229 0.0 1.7 0.00 0.00 0.00 80 1013.9
20260502021550 49 224 0.0 0.9 0.00 0.00 0.00 79 1013.8
20260502014551 50 256 0.0 1.7 0.00 0.00 0.00 77 1013.8
20260502013100 50 259 0.9 2.6 0.00 0.00 0.00 76 1013.8
20260502011548 50 285 0.9 4.3 0.00 0.00 0.00 76 1013.7
20260502010046 50 264 0.9 3.5 0.00 0.00 0.00 76 1013.7
20260502004555 50 224 0.9 3.5 0.00 0.00 0.00 75 1013.4
20260502003044 51 217 0.9 3.5 0.00 0.00 0.00 74 1013.1
20260502001602 51 243 0.9 6.1 0.00 0.00 0.00 72 1012.9
20260502000043 52 345 1.7 5.2 0.00 0.00 0.00 70 1012.6
20260501234544 53 257 1.7 9.6 0.00 0.00 0.00 69 1012.4
20260501233053 54 212 1.7 7.0 0.00 0.00 0.00 67 1012.1
20260501231542 55 232 1.7 9.6 0.00 0.00 0.00 62 1011.9
20260501230041 56 208 2.6 9.6 0.00 0.00 0.00 56 1011.7
20260501224541 58 291 2.6 7.0 0.00 0.00 0.00 47 1011.7
20260501223041 59 304 1.7 7.0 0.00 0.00 0.00 44 1011.5
20260501221540 59 256 1.7 4.3 0.00 0.00 0.00 43 1011.4
20260501220109 59 285 2.6 7.0 0.00 0.00 0.00 42 1011.4
20260501214540 59 221 2.6 10.4 0.00 0.00 0.00 42 1011.4
20260501213039 60 197 1.7 5.2 0.00 0.00 0.00 41 1011.3
20260501211538 60 345 2.6 10.4 0.00 0.00 0.00 41 1011.3
20260501210054 60 283 2.6 6.1 0.00 0.00 0.00 42 1011.2
20260501204542 59 308 2.6 9.6 0.00 0.00 0.00 42 1011.3
20260501203039 59 224 5.2 12.2 0.00 0.00 0.00 42 1011.2
20260501201540 59 200 3.5 9.6 0.00 0.00 0.00 44 1011.3
20260501200034 58 284 3.5 9.6 0.00 0.00 0.00 46 1011.4
20260501194537 58 304 4.3 8.7 0.00 0.00 0.00 45 1011.4
20260501193040 59 181 2.6 7.0 0.00 0.00 0.00 46 1011.7